Total_Precipitation_Accumulation
0.32 0.30 0.30 0.33 0.35 0.34 0.30 0.25 0.23 0.20 0.18 0.16 0.13 0.10 0.10 0.08 0.05 0.04 0.03 0.03 0.03 0.03 0.05 0.08 0.10 0.11 0.12 0.13 0.14 0.16 0.16 0.13 0.10 0.09 0.08 0.07 0.07 0.06 0.07 0.09 0.10 0.11 0.12
0.40 0.37 0.33 0.32 0.34 0.35 0.36 0.33 0.30 0.29 0.26 0.23 0.18 0.15 0.12 0.12 0.10 0.06 0.04 0.03 0.03 0.03 0.03 0.06 0.11 0.16 0.18 0.20 0.21 0.21 0.20 0.16 0.13 0.12 0.09 0.07 0.06 0.05 0.05 0.06 0.08 0.10 0.12
0.48 0.45 0.41 0.36 0.33 0.35 0.38 0.40 0.40 0.40 0.35 0.30 0.25 0.23 0.21 0.18 0.17 0.15 0.10 0.07 0.05 0.04 0.03 0.04 0.09 0.16 0.21 0.25 0.29 0.31 0.31 0.24 0.18 0.15 0.13 0.11 0.09 0.08 0.07 0.06 0.06 0.06 0.08
0.57 0.55 0.49 0.38 0.33 0.39 0.42 0.41 0.39 0.39 0.34 0.29 0.24 0.24 0.24 0.23 0.21 0.21 0.19 0.16 0.12 0.09 0.06 0.05 0.06 0.12 0.19 0.26 0.33 0.41 0.45 0.38 0.29 0.24 0.21 0.18 0.14 0.12 0.10 0.08 0.07 0.06 0.07
0.63 0.65 0.59 0.53 0.49 0.44 0.43 0.44 0.39 0.37 0.36 0.34 0.31 0.27 0.24 0.22 0.20 0.20 0.19 0.16 0.13 0.10 0.09 0.08 0.08 0.09 0.13 0.20 0.29 0.42 0.51 0.47 0.38 0.31 0.28 0.25 0.21 0.17 0.14 0.13 0.11 0.10 0.09
0.73 0.72 0.72 0.71 0.70 0.63 0.51 0.47 0.45 0.43 0.40 0.43 0.45 0.41 0.35 0.29 0.26 0.23 0.21 0.18 0.14 0.12 0.11 0.10 0.10 0.09 0.09 0.14 0.23 0.34 0.43 0.51 0.50 0.43 0.37 0.32 0.28 0.24 0.22 0.20 0.19 0.18 0.17
0.95 0.90 0.83 0.88 0.90 0.84 0.73 0.67 0.64 0.61 0.57 0.57 0.58 0.50 0.43 0.40 0.37 0.31 0.27 0.25 0.21 0.18 0.15 0.14 0.12 0.11 0.09 0.10 0.14 0.22 0.31 0.43 0.51 0.54 0.51 0.45 0.41 0.37 0.34 0.33 0.32 0.29 0.28
1.08 1.05 1.02 1.00 1.00 1.01 0.99 0.94 0.91 0.86 0.80 0.80 0.79 0.75 0.59 0.45 0.35 0.31 0.31 0.30 0.28 0.26 0.23 0.21 0.18 0.15 0.13 0.11 0.10 0.12 0.18 0.28 0.41 0.52 0.57 0.56 0.52 0.50 0.50 0.52 0.52 0.51 0.47
1.24 1.15 1.13 1.16 1.12 1.08 1.05 1.04 1.04 1.02 0.96 0.92 0.91 0.96 0.81 0.56 0.38 0.29 0.26 0.27 0.29 0.29 0.29 0.30 0.30 0.27 0.21 0.18 0.16 0.14 0.14 0.17 0.27 0.43 0.58 0.64 0.64 0.64 0.66 0.72 0.76 0.77 0.71
1.42 1.36 1.29 1.28 1.26 1.21 1.11 1.10 1.09 1.05 1.02 0.97 0.94 0.86 0.79 0.64 0.58 0.43 0.29 0.27 0.29 0.28 0.30 0.32 0.35 0.36 0.35 0.32 0.28 0.25 0.22 0.20 0.25 0.36 0.53 0.69 0.78 0.83 0.86 0.89 0.92 0.96 0.93
1.51 1.46 1.41 1.39 1.32 1.26 1.22 1.22 1.20 1.17 1.11 1.05 1.00 0.94 0.92 0.79 0.65 0.61 0.45 0.32 0.32 0.33 0.34 0.35 0.37 0.38 0.40 0.39 0.35 0.34 0.34 0.30 0.33 0.42 0.55 0.72 0.85 0.97 1.07 1.10 1.10 1.12 1.12
1.62 1.52 1.44 1.39 1.33 1.30 1.28 1.28 1.31 1.27 1.23 1.18 1.13 1.07 1.06 1.00 0.85 0.79 0.69 0.46 0.39 0.35 0.34 0.35 0.35 0.37 0.38 0.39 0.39 0.42 0.41 0.42 0.44 0.52 0.66 0.79 0.88 0.99 1.12 1.23 1.25 1.20 1.19
1.43 1.41 1.42 1.39 1.35 1.29 1.28 1.30 1.32 1.29 1.25 1.21 1.14 1.11 1.10 1.06 0.97 0.94 0.88 0.68 0.53 0.41 0.37 0.36 0.35 0.35 0.36 0.37 0.40 0.49 0.49 0.52 0.55 0.62 0.74 0.86 0.90 0.94 1.03 1.17 1.31 1.37 1.40
1.36 1.39 1.39 1.40 1.42 1.41 1.36 1.35 1.35 1.32 1.30 1.22 1.11 1.05 1.01 0.96 0.96 0.98 0.96 0.95 0.86 0.66 0.52 0.44 0.39 0.39 0.41 0.45 0.52 0.62 0.60 0.71 0.73 0.76 0.85 0.93 0.95 0.93 0.93 0.99 1.11 1.22 1.28
1.23 1.27 1.28 1.30 1.32 1.34 1.33 1.33 1.31 1.28 1.28 1.25 1.18 1.10 0.99 0.88 0.87 0.89 0.92 0.98 1.07 0.97 0.73 0.54 0.50 0.51 0.55 0.60 0.69 0.70 0.67 0.81 0.87 0.88 0.92 0.96 0.96 0.90 0.86 0.86 0.90 0.95 0.99
1.06 1.11 1.13 1.14 1.16 1.18 1.21 1.24 1.21 1.17 1.16 1.13 1.12 1.12 1.06 0.97 0.94 0.94 0.98 1.04 1.11 1.16 1.00 0.68 0.58 0.59 0.68 0.75 0.84 0.79 0.74 0.85 0.84 0.83 0.85 0.85 0.81 0.76 0.74 0.73 0.75 0.80 0.84
0.94 0.95 0.97 0.99 0.99 1.02 1.06 1.10 1.06 1.05 1.07 1.06 1.05 1.08 1.09 1.06 1.07 1.05 1.08 1.13 1.19 1.25 1.25 0.96 0.77 0.74 0.77 0.78 0.79 0.74 0.69 0.70 0.68 0.76 0.74 0.71 0.67 0.65 0.63 0.64 0.66 0.69 0.71
0.85 0.86 0.87 0.89 0.86 0.85 0.89 0.93 0.95 0.94 0.95 0.96 0.99 1.04 1.07 1.08 1.12 1.13 1.16 1.19 1.20 1.19 1.20 1.08 0.88 0.79 0.74 0.70 0.68 0.66 0.63 0.60 0.56 0.64 0.64 0.62 0.61 0.59 0.58 0.58 0.58 0.59 0.64
0.75 0.77 0.77 0.80 0.82 0.80 0.81 0.82 0.83 0.84 0.85 0.85 0.86 0.89 0.91 0.96 1.02 1.03 1.06 1.11 1.12 1.11 1.11 1.03 0.86 0.71 0.65 0.63 0.66 0.64 0.58 0.55 0.50 0.51 0.53 0.51 0.50 0.51 0.51 0.52 0.52 0.52 0.50
0.57 0.62 0.66 0.69 0.70 0.73 0.76 0.79 0.82 0.81 0.79 0.79 0.78 0.80 0.83 0.87 0.92 0.98 1.02 1.03 1.04 1.06 1.07 1.05 0.96 0.80 0.68 0.61 0.63 0.63 0.58 0.50 0.45 0.41 0.48 0.47 0.45 0.44 0.42 0.41 0.38 0.36 0.36
0.41 0.45 0.51 0.58 0.64 0.66 0.70 0.74 0.77 0.79 0.80 0.80 0.82 0.86 0.91 1.00 1.02 0.98 0.95 0.92 0.92 0.96 0.99 0.99 0.91 0.78 0.68 0.61 0.61 0.56 0.54 0.51 0.49 0.44 0.44 0.42 0.39 0.39 0.37 0.37 0.35 0.31 0.31
0.34 0.37 0.43 0.47 0.54 0.60 0.76 0.75 0.71 0.72 0.80 0.84 0.85 0.85 0.88 0.98 0.96 0.95 0.89 0.85 0.86 0.91 0.93 0.87 0.76 0.63 0.51 0.44 0.44 0.51 0.56 0.61 0.59 0.42 0.41 0.41 0.38 0.39 0.34 0.31 0.34 0.33 0.32
0.36 0.39 0.41 0.45 0.51 0.64 0.80 0.77 0.80 0.74 0.77 0.82 0.84 0.82 0.78 0.75 0.76 0.69 0.74 0.79 0.79 0.78 0.74 0.67 0.62 0.51 0.43 0.40 0.48 0.58 0.59 0.58 0.48 0.35 0.40 0.47 0.42 0.39 0.32 0.31 0.36 0.34 0.33
0.50 0.55 0.59 0.62 0.65 0.74 0.80 0.72 0.69 0.64 0.68 0.70 0.69 0.67 0.63 0.58 0.56 0.56 0.59 0.65 0.57 0.54 0.53 0.48 0.45 0.42 0.41 0.43 0.51 0.61 0.64 0.65 0.57 0.50 0.50 0.55 0.45 0.39 0.33 0.32 0.38 0.36 0.36
0.78 0.76 0.73 0.69 0.66 0.66 0.66 0.61 0.57 0.52 0.53 0.52 0.50 0.49 0.49 0.47 0.53 0.60 0.55 0.51 0.47 0.45 0.49 0.51 0.52 0.51 0.55 0.57 0.59 0.65 0.73 0.81 0.74 0.57 0.48 0.46 0.42 0.38 0.37 0.37 0.39 0.43 0.41
0.70 0.68 0.67 0.64 0.58 0.51 0.47 0.42 0.40 0.37 0.36 0.34 0.33 0.33 0.39 0.41 0.49 0.55 0.48 0.45 0.43 0.38 0.39 0.43 0.45 0.44 0.42 0.46 0.55 0.55 0.63 0.83 0.74 0.55 0.36 0.39 0.43 0.49 0.61 0.44 0.37 0.39 0.42